This demonstration page uses our WeatherBlox Daily Observations layout. Learn more.

Left ArrowRight Arrow

47.50024, -111.30081

Hourly Observations for March 19, 2015

Temp ( °F °C ) Dew Point ( °F °C ) Humidity (%) Winds ( mph kmh ) Pressure ( in mb ) Visibility ( mi km ) Precip ( " mm )
12:53 am 00:53 Clear 34 1.1 27 -2.8 76 76 SW 14 22 30.15 1021 10 16 0.00 0.00
1:53 am 01:53 Clear 34 1.1 27 -2.8 76 76 SW 14 22 30.16 1022 10 16 0.00 0.00
2:53 am 02:53 Clear 33 0.6 27 -2.8 78 78 SSW 13 20 30.19 1022 10 16 0.00 0.00
3:53 am 03:53 Mostly Clear 33 0.6 26 -3.3 75 75 SSW 12 19 30.19 1022 10 16 0.00 0.00
4:53 am 04:53 Clear 33 0.6 26 -3.3 75 75 SW 12 19 30.18 1022 10 16 0.00 0.00
5:53 am 05:53 Clear 32 0 26 -3.3 79 79 SSW 13 20 30.19 1022 10 16 0.00 0.00
6:53 am 06:53 Clear 34 1.1 27 -2.8 76 76 SSW 13 20 30.18 1022 10 16 0.00 0.00
7:53 am 07:53 Sunny 36 2.2 27 -2.8 70 70 SSW 14 22 30.17 1022 10 16 0.00 0.00
8:53 am 08:53 Sunny 39 4 28 -2 65 65 SSW 14 22 30.18 1022 10 16 0.00 0.00
9:53 am 09:53 Sunny 45 7.2 29 -1.7 54 54 SSW 18 30 30.18 1022 10 16 0.00 0.00
10:53 am 10:53 Sunny 49 9.4 28 -2.2 44 44 SW 18 30 30.15 1021 10 16 0.00 0.00
11:53 am 11:53 Sunny 52 11.1 26 -3.3 37 37 WSW 21 33 30.12 1020 10 16 0.00 0.00
12:53 pm 12:53 Sunny 54 12.2 27 -2.8 35 35 SW 18 30 30.08 1019 10 16 0.00 0.00
1:53 pm 13:53 Sunny 58 14.4 27 -2.8 31 31 SW 20 31 30.04 1017 10 16 0.00 0.00
2:53 pm 14:53 Sunny 60 15.6 25 -3.9 26 26 SW 22 35 30.01 1016 10 16 0.00 0.00
3:53 pm 15:53 Sunny 59 15 20 -6.7 22 22 WSW 23 37 29.99 1016 10 16 0.00 0.00
4:53 pm 16:53 Sunny 56 13.3 19 -7.2 24 24 WSW 20 31 29.99 1016 10 16 0.00 0.00
5:53 pm 17:53 Sunny 54 12.2 19 -7.2 25 25 SW 14 22 29.99 1016 10 16 0.00 0.00
6:53 pm 18:53 Partly Cloudy 53 11.7 23 -5 31 31 SW 15 24 29.96 1015 10 16 0.00 0.00
7:53 pm 19:53 Mostly Clear 53 11.7 21 -6.1 28 28 SW 16 26 29.94 1014 10 16 0.00 0.00
8:53 pm 20:53 Mostly Clear 51 10.6 22 -5.6 32 32 SW 17 28 29.96 1015 10 16 0.00 0.00
9:53 pm 21:53 Clear 48 8.9 23 -5 37 37 SW 17 28 29.96 1015 10 16 0.00 0.00
10:53 pm 22:53 Clear 50 10 22 -5.6 33 33 SW 18 30 29.93 1014 10 16 0.00 0.00
11:53 pm 23:53 Clear 50 10 23 -5 35 35 SW 24 39 29.93 1014 10 16 0.00 0.00

Powered by AerisWeather